#timestamp,LO_Frequency,Hit,StdDev 
1610539215.1,286046994.0,N
1610539216.0,286046994.0,N
1610539235.8,286046997.0,N
1610539255.7,286046997.6,N
1610539275.5,286047001.1,N
1610539295.3,286046994.1,N
1610539315.2,286046996.0,N
1610539335.0,286046990.9,N
1610539335.9,286046986.3,N
1610539355.7,286046987.4,N
1610539375.6,286046987.9,N
1610539395.4,286046994.3,N
1610539415.3,286046993.1,N
1610539435.1,286046994.6,N
1610539455.8,286046997.5,N
1610539475.7,286047005.8,N
1610539495.5,286047004.0,N
1610539515.4,286047003.6,N
1610539535.2,286047001.9,N
1610539555.0,286047007.0,N
1610539555.9,286047007.0,N
1610539575.8,286047006.6,N
1610539595.6,286047005.7,N
1610539615.5,286047003.6,N
1610539635.3,286046999.3,N
1610539655.1,286046998.3,N
1610539675.9,286047001.9,N
1610539695.7,286047000.1,N
1610539715.6,286047012.4,N
1610539735.4,286047016.5,N
1610539755.2,286047017.5,N
1610539775.1,286047019.7,N
1610539776.0,286047019.7,N
1610539795.8,286047019.4,N
1610539815.7,286047018.1,N
1610539835.5,286047012.5,N
1610539855.3,286047016.4,N
1610539875.2,286047020.4,N
1610539895.0,286047021.4,N
1610539895.9,286047021.4,N
1610539915.8,286047024.5,N
1610539935.6,286047025.7,N
1610539955.4,286047029.4,Y
1610539975.3,286047018.2,P
1610539995.1,286047017.0,P
1610540015.9,286047024.9,P
1610540035.7,286047022.8,Y
1610540055.5,286047007.3,P
1610540075.4,286047006.8,N
1610540095.2,286047006.6,N
1610540115.0,286047007.2,N
1610540116.0,286047007.2,N
1610540135.8,286047007.3,N
1610540155.6,286047007.6,N
1610540175.5,286047001.9,N
1610540195.3,286047003.3,N
1610540215.1,286047014.0,Y
1610540235.9,286047008.0,P
1610540255.7,286047008.3,P
1610540275.6,286047006.1,P
1610540295.4,286047003.1,Y
1610540315.2,286046994.0,P
1610540335.1,286047000.5,N
1610540336.0,286047000.5,N
1610540355.8,286047006.1,N
1610540375.7,286047017.3,Y
1610540395.5,286047023.7,P
1610540415.3,286047028.2,N
1610540435.2,286047024.6,N
1610540455.0,286047037.5,Y
1610540455.9,286047019.1,P
1610540475.7,286047000.7,N
1610540495.6,286046993.7,N
1610540515.4,286047001.2,N
1610540535.3,286046995.9,N
1610540555.1,286046993.5,N
1610540556.0,286046993.5,N
1610540575.8,286047000.5,N
1610540595.7,286046997.9,N
1610540615.5,286046998.4,N
1610540635.3,286047006.1,N
1610540655.2,286047003.6,N
1610540675.0,286047001.7,N
1610540675.9,286047001.7,N
1610540695.8,286046995.4,N
1610540715.6,286046988.6,N
1610540735.5,286046994.0,N
1610540755.3,286046991.0,N
1610540775.1,286047003.7,N
1610540795.9,286047012.1,N
1610540815.7,286047013.4,N
1610540835.6,286047012.2,N
1610540855.4,286047014.4,N
1610540875.2,286047023.2,N
1610540895.1,286047023.0,N
1610540896.0,286047023.0,N
1610540915.8,286047034.1,Y
1610540935.7,286047030.0,P
1610540955.5,286047021.8,N
1610540975.3,286047015.7,N
1610540995.2,286047013.6,N
1610541015.9,286047015.7,N
1610541035.7,286047009.3,N
1610541055.6,286047009.7,N
1610541075.4,286047007.9,N
1610541095.3,286047026.4,Y
1610541115.1,286047011.4,P
1610541116.0,286047011.4,P
1610541135.8,286047004.9,P
1610541155.7,286047002.0,N
1610541175.5,286047007.0,N
1610541195.4,286047013.4,Y
1610541215.2,286046999.0,P
1610541235.0,286046991.5,N
1610541235.9,286046991.5,N
1610541255.8,286046987.4,N
1610541275.6,286046990.0,N
1610541295.4,286046986.5,N
1610541315.3,286046984.7,N
1610541335.1,286046981.6,N
1610541355.9,286046977.2,N
1610541375.7,286046975.6,N
1610541395.5,286046966.5,Y
1610541415.4,286046974.1,P
1610541435.2,286046976.4,P
1610541455.1,286046980.2,P
1610541456.0,286046980.2,Y
1610541475.8,286047008.7,P
1610541495.6,286047012.9,N
1610541515.5,286047014.7,N
1610541535.3,286047012.6,N
1610541555.1,286047012.7,N
1610541575.9,286047008.1,N
1610541595.7,286047006.7,N
1610541615.6,286047005.0,N
1610541635.4,286047005.0,N
1610541655.2,286047002.9,N
1610541675.1,286047011.0,N
1610541676.0,286047011.0,N
1610541695.8,286047021.9,N
1610541715.7,286047018.9,N
1610541735.5,286047019.7,N
1610541755.3,286047026.3,N
1610541775.2,286047022.7,N
1610541795.0,286047021.1,N
1610541795.9,286047021.1,N
1610541815.7,286047020.7,N
1610541835.6,286047029.0,N
1610541855.4,286047034.8,Y
1610541875.3,286047026.8,P
1610541895.1,286047018.9,N
1610541915.8,286047012.5,N
1610541935.7,286047010.6,N
1610541955.5,286047010.4,N
1610541975.4,286047009.3,N
1610541995.2,286047012.4,N
1610542015.0,286047010.1,N
1610542015.9,286047010.1,N
1610542035.8,286047018.8,Y
1610542055.6,286047009.3,P
1610542075.5,286047009.6,P
1610542095.3,286047008.1,P
1610542115.1,286047004.2,N
1610542135.9,286047001.0,N
1610542155.7,286047002.2,N
1610542175.6,286047001.2,N
1610542195.4,286046984.2,Y
1610542215.2,286046985.3,P
1610542235.1,286046993.9,N
1610542236.0,286046993.9,N
1610542255.8,286046990.3,N
1610542275.7,286046990.4,N
1610542295.5,286046980.6,Y
1610542315.3,286046994.8,P
1610542335.2,286047047.3,P
1610542355.0,286047018.2,N
1610542355.9,286047018.2,N
1610542375.7,286047034.0,N
1610542395.6,286047047.2,N
1610542415.4,286047051.8,N
1610542435.3,286047061.9,N
1610542455.1,286047047.7,N
1610542456.0,286047047.7,N
1610542475.8,286047042.5,N
1610542495.7,286047032.9,N
1610542515.5,286047029.8,N
1610542535.3,286047019.0,N
1610542555.2,286047015.9,N
1610542575.0,286047008.8,N
1610542575.9,286047008.8,N
1610542595.8,286047001.1,N
1610542615.6,286046994.7,N
1610542635.4,286046989.0,N
1610542655.3,286046985.3,N
1610542675.1,286046982.4,N
1610542695.8,286046982.7,N
1610542715.7,286046986.1,N
1610542735.5,286046981.2,N
1610542755.4,286046981.1,N
1610542775.2,286046981.0,N
1610542795.0,286046988.4,N
1610542795.9,286046988.4,N
